TimeCST,TemperatureF,Dew PointF,Humidity,Sea Level PressureIn,VisibilityMPH,Wind Direction,Wind SpeedMPH,Gust SpeedMPH,PrecipitationIn,Events,Conditions,WindDirDegrees,DateUTC
12:15 AM,14.0,1.4,57,30.35,10.0,NE,13.8,-,N/A,,Overcast,40,2013-12-06 06:15:00
12:35 AM,14.0,1.4,57,30.34,10.0,NE,10.4,-,N/A,,Overcast,40,2013-12-06 06:35:00
12:55 AM,12.2,1.4,62,30.33,10.0,NNE,15.0,18.4,N/A,,Overcast,20,2013-12-06 06:55:00
1:15 AM,12.2,1.4,62,30.34,10.0,NNE,15.0,-,N/A,,Overcast,30,2013-12-06 07:15:00
1:35 AM,12.2,-0.4,57,30.34,10.0,NE,13.8,-,N/A,,Overcast,40,2013-12-06 07:35:00
1:55 AM,12.2,-0.4,57,30.35,10.0,NE,13.8,19.6,N/A,,Overcast,40,2013-12-06 07:55:00
2:15 AM,12.2,-2.2,53,30.35,10.0,NNE,16.1,-,N/A,,Overcast,30,2013-12-06 08:15:00
2:35 AM,12.2,-2.2,53,30.35,10.0,NNE,16.1,-,N/A,,Overcast,30,2013-12-06 08:35:00
2:55 AM,12.2,-0.4,57,30.35,10.0,NNE,16.1,-,N/A,,Overcast,30,2013-12-06 08:55:00
3:15 AM,12.2,-0.4,57,30.36,10.0,NNE,12.7,18.4,N/A,,Overcast,20,2013-12-06 09:15:00
3:35 AM,12.2,-2.2,53,30.36,10.0,NNE,15.0,19.6,N/A,,Overcast,20,2013-12-06 09:35:00
3:55 AM,10.4,-2.2,57,30.36,10.0,NNE,18.4,-,N/A,,Overcast,20,2013-12-06 09:55:00
4:15 AM,10.4,-4.0,52,30.36,10.0,NNE,18.4,-,N/A,,Overcast,20,2013-12-06 10:15:00
4:35 AM,10.4,-4.0,52,30.36,10.0,NNE,18.4,-,N/A,,Overcast,20,2013-12-06 10:35:00
4:55 AM,10.4,-5.8,48,30.37,10.0,NNE,15.0,-,N/A,,Overcast,20,2013-12-06 10:55:00
5:15 AM,10.4,-5.8,48,30.37,10.0,NNE,13.8,-,N/A,,Overcast,30,2013-12-06 11:15:00
5:35 AM,10.4,-5.8,48,30.37,10.0,NNE,12.7,19.6,N/A,,Overcast,20,2013-12-06 11:35:00
5:55 AM,10.4,-5.8,48,30.37,10.0,NNE,16.1,-,N/A,,Overcast,20,2013-12-06 11:55:00
6:15 AM,10.4,-7.6,44,30.37,10.0,NNE,15.0,-,N/A,,Overcast,20,2013-12-06 12:15:00
6:35 AM,10.4,-7.6,44,30.38,10.0,NNE,16.1,-,N/A,,Mostly Cloudy,20,2013-12-06 12:35:00
6:55 AM,10.4,-7.6,44,30.39,10.0,NNE,15.0,-,N/A,,Overcast,20,2013-12-06 12:55:00
7:15 AM,10.4,-5.8,48,30.40,10.0,NNE,15.0,20.7,N/A,,Overcast,20,2013-12-06 13:15:00
7:35 AM,8.6,-7.6,48,30.41,10.0,NNE,17.3,-,N/A,,Overcast,20,2013-12-06 13:35:00
7:55 AM,10.4,-7.6,44,30.42,10.0,NNE,13.8,-,N/A,,Overcast,20,2013-12-06 13:55:00
8:15 AM,8.6,-9.4,44,30.42,10.0,NNE,17.3,-,N/A,,Overcast,20,2013-12-06 14:15:00
8:35 AM,10.4,-7.6,44,30.42,10.0,North,13.8,-,N/A,,Overcast,10,2013-12-06 14:35:00
8:55 AM,10.4,-7.6,44,30.43,10.0,North,13.8,-,N/A,,Overcast,10,2013-12-06 14:55:00
9:15 AM,10.4,-7.6,44,30.44,10.0,North,13.8,20.7,N/A,,Overcast,10,2013-12-06 15:15:00
9:35 AM,10.4,-5.8,48,30.45,10.0,NNE,16.1,-,N/A,,Overcast,20,2013-12-06 15:35:00
9:55 AM,10.4,-5.8,48,30.46,10.0,NNE,16.1,21.9,N/A,,Overcast,20,2013-12-06 15:55:00
10:15 AM,12.2,-5.8,45,30.47,10.0,NNE,16.1,-,N/A,,Overcast,20,2013-12-06 16:15:00
10:35 AM,12.2,-5.8,45,30.48,10.0,NNE,13.8,-,N/A,,Overcast,20,2013-12-06 16:35:00
10:55 AM,12.2,-5.8,45,30.48,10.0,NNE,13.8,19.6,N/A,,Overcast,30,2013-12-06 16:55:00
11:15 AM,14.0,-7.6,38,30.49,10.0,NNE,12.7,18.4,N/A,,Overcast,30,2013-12-06 17:15:00
11:35 AM,14.0,-7.6,38,30.49,10.0,NNE,12.7,-,N/A,,Overcast,20,2013-12-06 17:35:00
11:55 AM,15.8,-5.8,38,30.49,10.0,NNE,12.7,16.1,N/A,,Overcast,30,2013-12-06 17:55:00
12:15 PM,15.8,-7.6,35,30.48,10.0,North,11.5,20.7,N/A,,Overcast,10,2013-12-06 18:15:00
12:35 PM,15.8,-5.8,38,30.48,10.0,NNE,16.1,20.7,N/A,,Overcast,20,2013-12-06 18:35:00
12:55 PM,15.8,-7.6,35,30.47,10.0,North,11.5,-,N/A,,Overcast,10,2013-12-06 18:55:00
1:15 PM,14.0,-7.6,38,30.47,10.0,North,13.8,19.6,N/A,,Overcast,360,2013-12-06 19:15:00
1:35 PM,15.8,-7.6,35,30.46,10.0,NNE,13.8,19.6,N/A,,Overcast,20,2013-12-06 19:35:00
1:55 PM,15.8,-7.6,35,30.46,10.0,NNE,16.1,19.6,N/A,,Overcast,20,2013-12-06 19:55:00
2:15 PM,15.8,-7.6,35,30.46,10.0,NNE,15.0,-,N/A,,Overcast,20,2013-12-06 20:15:00
2:35 PM,15.8,-7.6,35,30.45,10.0,NNE,16.1,-,N/A,,Overcast,20,2013-12-06 20:35:00
2:55 PM,15.8,-7.6,35,30.46,10.0,NE,13.8,19.6,N/A,,Overcast,40,2013-12-06 20:55:00
3:15 PM,15.8,-7.6,35,30.46,10.0,NNE,12.7,-,N/A,,Scattered Clouds,20,2013-12-06 21:15:00
3:35 PM,15.8,-7.6,35,30.46,10.0,North,15.0,20.7,N/A,,Clear,10,2013-12-06 21:35:00
3:55 PM,15.8,-7.6,35,30.46,10.0,NNE,15.0,-,N/A,,Clear,20,2013-12-06 21:55:00
4:15 PM,15.8,-9.4,32,30.47,10.0,NNE,12.7,-,N/A,,Clear,30,2013-12-06 22:15:00
4:35 PM,15.8,-9.4,32,30.48,10.0,NE,10.4,-,N/A,,Clear,40,2013-12-06 22:35:00
4:55 PM,14.0,-9.4,35,30.50,10.0,NE,10.4,-,N/A,,Clear,40,2013-12-06 22:55:00
5:15 PM,12.2,-9.4,38,30.50,10.0,NNE,11.5,-,N/A,,Clear,20,2013-12-06 23:15:00
5:35 PM,12.2,-9.4,38,30.50,10.0,NNE,10.4,-,N/A,,Clear,20,2013-12-06 23:35:00
5:55 PM,10.4,-9.4,41,30.51,10.0,NNE,10.4,-,N/A,,Clear,20,2013-12-06 23:55:00
6:15 PM,10.4,-9.4,41,30.51,10.0,NNE,6.9,-,N/A,,Clear,20,2013-12-07 00:15:00
6:35 PM,8.6,-9.4,44,30.52,10.0,NNE,6.9,-,N/A,,Clear,20,2013-12-07 00:35:00
6:55 PM,8.6,-9.4,44,30.52,10.0,NE,8.1,-,N/A,,Clear,40,2013-12-07 00:55:00
7:15 PM,8.6,-7.6,48,30.53,10.0,NE,6.9,-,N/A,,Clear,40,2013-12-07 01:15:00
7:35 PM,8.6,-7.6,48,30.54,10.0,NE,5.8,-,N/A,,Clear,50,2013-12-07 01:35:00
7:55 PM,6.8,-7.6,52,30.55,10.0,NE,5.8,-,N/A,,Clear,50,2013-12-07 01:55:00
8:15 PM,6.8,-7.6,52,30.56,10.0,NE,6.9,-,N/A,,Clear,40,2013-12-07 02:15:00
8:35 PM,5.0,-7.6,56,30.56,10.0,NNE,5.8,-,N/A,,Clear,30,2013-12-07 02:35:00
8:55 PM,3.2,-9.4,56,30.56,10.0,NNE,5.8,-,N/A,,Clear,30,2013-12-07 02:55:00
9:15 PM,5.0,-7.6,56,30.56,10.0,NE,5.8,-,N/A,,Clear,40,2013-12-07 03:15:00
9:35 PM,3.2,-9.4,56,30.57,10.0,NNE,3.5,-,N/A,,Clear,20,2013-12-07 03:35:00
9:55 PM,3.2,-7.6,61,30.57,10.0,Calm,Calm,-,N/A,,Clear,0,2013-12-07 03:55:00
10:15 PM,3.2,-7.6,61,30.57,10.0,Calm,Calm,-,N/A,,Clear,0,2013-12-07 04:15:00
10:35 PM,3.2,-7.6,61,30.57,10.0,Calm,Calm,-,N/A,,Clear,0,2013-12-07 04:35:00
10:55 PM,3.2,-9.4,56,30.58,10.0,Calm,Calm,-,N/A,,Clear,0,2013-12-07 04:55:00
11:15 PM,1.4,-9.4,61,30.58,10.0,NNE,4.6,-,N/A,,Clear,20,2013-12-07 05:15:00
11:35 PM,1.4,-7.6,66,30.58,10.0,NNE,4.6,-,N/A,,Clear,20,2013-12-07 05:35:00
11:55 PM,1.4,-9.4,61,30.58,10.0,NNE,3.5,-,N/A,,Clear,20,2013-12-07 05:55:00